EW8130 Weather Reports


time (UTC)temp
F
wind
direction
speed
knots
gust
knots
rain 1hr
in
rain 24hr
in
rain mn
in
humidity
%
barometer
mb
20260509084547 69 62 1.7 8.7 0.00 0.00 0.00 91 986.7
20260509083052 70 93 0.0 5.2 0.00 0.00 0.00 90 987.8
20260509081538 70 110 0.0 1.7 0.00 0.00 0.00 90 988.5
20260509080039 70 125 0.0 1.7 0.00 0.00 0.00 90 988.9
20260509074538 70 163 0.0 0.9 0.00 0.00 0.00 90 989.2
20260509073037 69 166 0.0 0.9 0.00 0.00 0.00 90 989.5
20260509071541 69 164 0.0 0.9 0.00 0.00 0.00 89 989.7
20260509070033 70 183 0.0 2.6 0.00 0.00 0.00 88 988.9
20260509064531 70 137 0.0 0.0 0.00 0.00 0.00 88 988.9
20260509063029 70 118 0.0 0.9 0.00 0.00 0.00 87 988.9
20260509061528 71 113 0.0 0.9 0.00 0.00 0.00 86 989.4
20260509060029 71 96 0.0 0.9 0.00 0.00 0.00 86 989.5
20260509054527 71 15 0.0 0.0 0.00 0.00 0.00 85 990.1
20260509053031 71 189 0.0 0.9 0.00 0.00 0.00 85 989.5
20260509051522 71 123 0.0 0.9 0.00 0.00 0.00 85 989.1
20260509050021 72 142 0.0 0.9 0.00 0.00 0.00 84 989.2
20260509044519 72 99 0.0 3.5 0.00 0.00 0.00 83 988.7
20260509043017 72 129 0.0 0.9 0.00 0.00 0.00 82 989.2
20260509041517 72 232 0.0 0.0 0.00 0.00 0.00 82 989.8
20260509040026 72 359 0.0 0.9 0.00 0.00 0.00 82 989.6
20260509034517 73 70 0.0 3.5 0.00 0.00 0.00 82 989.1
20260509033015 73 95 0.0 1.7 0.00 0.00 0.00 82 989.0
20260509031514 72 126 0.0 0.9 0.00 0.00 0.00 82 988.9
20260509030028 72 113 0.0 1.7 0.00 0.00 0.00 81 988.7
20260509024514 72 50 0.0 0.9 0.00 0.00 0.00 80 988.4
20260509023012 72 87 0.0 1.7 0.00 0.00 0.00 79 988.1
20260509021513 72 37 0.0 0.9 0.00 0.00 0.00 79 988.0
20260509020012 72 57 0.0 0.9 0.00 0.00 0.00 79 988.1
20260509014510 72 110 0.0 0.9 0.00 0.00 0.00 79 988.1
20260509013011 72 73 0.0 1.7 0.00 0.00 0.00 79 988.0
20260509011511 72 93 0.0 0.9 0.00 0.00 0.00 79 987.8
20260509010010 73 53 0.0 0.9 0.00 0.00 0.00 78 987.3
20260509004512 73 359 0.0 1.7 0.00 0.00 0.00 77 987.1
20260509003012 73 359 0.0 0.9 0.00 0.00 0.00 77 987.3
20260509001512 73 359 0.0 1.7 0.00 0.00 0.00 76 987.4
20260509000008 73 359 0.0 1.7 0.00 0.00 0.00 76 987.5
20260508234512 73 50 0.0 1.7 0.00 0.00 0.00 75 987.7
20260508233008 74 66 0.0 1.7 0.00 0.00 0.00 73 987.8
20260508231507 75 31 0.0 0.9 0.00 0.00 0.00 71 987.7
20260508230006 74 10 0.0 0.9 0.00 0.00 0.00 72 987.8
20260508224505 73 134 0.0 0.9 0.00 0.00 0.00 72 987.9
20260508223005 73 85 0.0 0.9 0.00 0.00 0.00 73 988.0
20260508221504 73 121 0.0 0.9 0.00 0.00 0.00 72 988.0
20260508220004 73 137 0.0 0.9 0.00 0.00 0.00 74 987.9
20260508214503 72 359 0.0 1.7 0.00 0.00 0.00 73 987.8
20260508213008 71 91 0.0 1.7 0.00 0.00 0.00 75 987.9
20260508211503 71 294 0.0 13.0 0.00 0.00 0.00 78 986.9
20260508210100 72 139 0.0 6.1 0.00 0.00 0.00 75 989.8
20260508204557 73 152 0.0 0.9 0.00 0.00 0.00 73 989.6
20260508203107 74 149 0.0 0.9 0.00 0.00 0.00 72 989.7
20260508201604 74 114 0.0 0.9 0.00 0.00 0.00 70 989.6
20260508200056 75 145 0.0 1.7 0.00 0.00 0.00 68 989.6
20260508194556 76 135 0.0 1.7 0.00 0.00 0.00 67 989.6
20260508193055 75 52 0.0 0.9 0.00 0.00 0.00 66 989.8
20260508191552 75 56 0.0 5.2 0.00 0.00 0.00 69 990.1
20260508190050 75 76 0.0 2.6 0.00 0.00 0.00 67 990.2
20260508184549 76 82 0.0 4.3 0.00 0.00 0.00 66 990.3
20260508183048 77 122 0.0 5.2 0.00 0.00 0.00 64 990.4
20260508181547 77 108 0.0 5.2 0.00 0.00 0.00 65 990.5
20260508180042 76 124 0.0 0.9 0.00 0.00 0.00 65 990.8
20260508174537 75 31 0.0 1.7 0.00 0.00 0.00 66 991.1
20260508173035 75 78 0.0 1.7 0.00 0.00 0.00 65 991.3
20260508171534 75 18 0.0 2.6 0.00 0.00 0.00 63 991.4
20260508170031 73 104 0.0 0.9 0.00 0.00 0.00 65 991.9
20260508164527 73 144 0.0 1.7 0.00 0.00 0.00 66 992.4
20260508163030 72 113 0.0 0.9 0.00 0.00 0.00 68 992.6
20260508161522 72 107 0.0 5.2 0.00 0.00 0.00 68 992.7
20260508160024 71 73 0.9 7.8 0.00 0.00 0.00 68 992.9
20260508154518 70 131 0.0 4.3 0.00 0.00 0.00 69 993.1
20260508153014 69 58 0.0 2.6 0.00 0.00 0.00 70 993.3
20260508151513 68 34 0.0 1.7 0.00 0.00 0.00 70 993.4
20260508150034 68 86 0.0 6.1 0.00 0.00 0.00 71 993.4
20260508144511 68 62 0.0 7.8 0.00 0.00 0.00 70 993.3
20260508143012 68 37 0.0 1.7 0.00 0.00 0.00 70 993.2
20260508141508 67 93 0.0 1.7 0.00 0.00 0.00 72 993.5
20260508140009 66 39 0.9 6.1 0.00 0.00 0.00 73 993.6
20260508134504 66 21 0.0 1.7 0.00 0.00 0.00 73 993.5
20260508133109 65 18 0.0 1.7 0.00 0.00 0.00 76 993.6
20260508131601 63 331 0.0 0.9 0.00 0.00 0.00 83 993.7
20260508130100 61 359 0.0 0.0 0.00 0.00 0.00 87 993.9
20260508124555 60 317 0.0 0.0 0.00 0.00 0.00 88 993.7
20260508123056 60 254 0.0 0.0 0.00 0.00 0.00 87 993.4
20260508121555 60 359 0.0 0.0 0.00 0.00 0.00 86 993.7
20260508120054 60 26 0.0 0.0 0.00 0.00 0.00 86 993.6
20260508114553 60 79 0.0 0.9 0.00 0.00 0.00 87 993.7
20260508113056 60 237 0.0 0.0 0.00 0.00 0.00 87 994.1
20260508111601 60 267 0.0 0.9 0.00 0.00 0.00 87 994.4
20260508110056 60 166 0.0 0.9 0.00 0.00 0.00 87 993.9
20260508104550 60 243 0.0 1.7 0.00 0.00 0.00 87 993.3
20260508103052 60 46 0.0 1.7 0.00 0.00 0.00 86 992.8
20260508101549 61 128 0.0 1.7 0.00 0.00 0.00 86 992.9
20260508100046 61 74 0.0 0.9 0.00 0.00 0.00 85 993.0
20260508094548 61 157 0.0 0.9 0.00 0.00 0.00 84 993.2
20260508093047 61 75 0.0 0.9 0.00 0.00 0.00 84 993.0
20260508091554 62 113 0.0 0.9 0.00 0.00 0.00 84 993.0
20260508090043 62 35 0.0 0.9 0.00 0.00 0.00 84 992.9